When you browse on this site, cookies collect data to enhance your experience and personalize the content and advertising you see.
Visit our Privacy Policy to learn more. By continuing to use the site, you agree to this use of cookies and data.
  • In Hungary
  • List of Countries
  • For 7 days
  • Water Temperature
  • Satellite Maps
  • Weather Map
  • News
  • Weather Widgets
  • user-avatar
    Login

    Hourly Weather Virginia Beach

    Today, 17 June, Monday

    Time Temperature Precipitation Wind Pressure Humidity
    00:00 +26°C° 0 mm 7 mps 760 mmHg 80%
    01:00 +24°C° 0 mm 7 mps 760 mmHg 81%
    02:00 +24°C° 0.2 mm 7 mps 760 mmHg 81%
    03:00 +24°C° 0.2 mm 7 mps 760 mmHg 81%
    04:00 +24°C° 0.2 mm 6 mps 760 mmHg 81%
    05:00 +24°C° 0.6 mm 6 mps 761 mmHg 81%
    06:00 +26°C° 0.6 mm 6 mps 761 mmHg 82%
    07:00 +26°C° 0.6 mm 5 mps 761 mmHg 82%
    08:00 +28°C° 0 mm 5 mps 761 mmHg 75%
    09:00 +30°C° 0 mm 4 mps 761 mmHg 68%
    10:00 +33°C° 0 mm 4 mps 762 mmHg 61%
    11:00 +34°C° 0 mm 4 mps 761 mmHg 57%
    12:00 +35°C° 0 mm 3 mps 761 mmHg 54%
    13:00 +36°C° 0 mm 3 mps 761 mmHg 50%
    14:00 +36°C° 0.9 mm 3 mps 760 mmHg 51%
    15:00 +35°C° 0.9 mm 4 mps 760 mmHg 52%
    16:00 +35°C° 0.9 mm 5 mps 760 mmHg 53%
    17:00 +34°C° 0.3 mm 5 mps 760 mmHg 58%
    18:00 +33°C° 0.3 mm 5 mps 760 mmHg 63%
    19:00 +30°C° 0.3 mm 6 mps 760 mmHg 68%
    20:00 +29°C° 1 mm 6 mps 761 mmHg 72%
    21:00 +28°C° 1 mm 6 mps 761 mmHg 76%
    22:00 +27°C° 1 mm 6 mps 762 mmHg 80%
    23:00 +26°C° 0.5 mm 6 mps 762 mmHg 83%

    Tomorrow, 18 June, Tuesday

    Time Temperature Precipitation Wind Pressure Humidity
    00:00 +25°C° 0.5 mm 5 mps 762 mmHg 86%
    01:00 +23°C° 0.5 mm 5 mps 761 mmHg 89%
    02:00 +23°C° 0 mm 5 mps 761 mmHg 89%
    03:00 +23°C° 0 mm 5 mps 761 mmHg 90%
    04:00 +23°C° 0 mm 5 mps 760 mmHg 90%
    05:00 +23°C° 0 mm 5 mps 760 mmHg 88%
    06:00 +25°C° 0 mm 5 mps 761 mmHg 87%
    07:00 +26°C° 0 mm 5 mps 761 mmHg 85%
    08:00 +28°C° 0 mm 5 mps 761 mmHg 77%
    09:00 +30°C° 0 mm 5 mps 760 mmHg 70%
    10:00 +32°C° 0 mm 5 mps 760 mmHg 62%
    11:00 +33°C° 0 mm 5 mps 760 mmHg 58%
    12:00 +34°C° 0 mm 5 mps 760 mmHg 55%
    13:00 +35°C° 0 mm 5 mps 759 mmHg 51%
    14:00 +35°C° 0 mm 5 mps 759 mmHg 51%
    15:00 +35°C° 0 mm 5 mps 758 mmHg 51%
    16:00 +35°C° 0 mm 5 mps 758 mmHg 51%
    17:00 +33°C° 0 mm 6 mps 758 mmHg 57%
    18:00 +32°C° 0 mm 6 mps 758 mmHg 63%
    19:00 +30°C° 0 mm 6 mps 758 mmHg 68%
    20:00 +29°C° 0.1 mm 7 mps 758 mmHg 70%
    21:00 +28°C° 0.1 mm 7 mps 758 mmHg 72%
    22:00 +26°C° 0.1 mm 7 mps 758 mmHg 74%
    23:00 +26°C° 0.1 mm 7 mps 758 mmHg 77%

    Day after tomorrow, 19 June, Wednesday

    Time Temperature Precipitation Wind Pressure Humidity
    00:00 +26°C° 0.1 mm 7 mps 758 mmHg 80%
    01:00 +24°C° 0.1 mm 6 mps 758 mmHg 84%
    02:00 +24°C° 0 mm 6 mps 757 mmHg 87%
    03:00 +25°C° 0 mm 5 mps 757 mmHg 89%
    04:00 +23°C° 0 mm 4 mps 757 mmHg 92%
    05:00 +25°C° 0 mm 4 mps 757 mmHg 90%
    06:00 +26°C° 0 mm 4 mps 756 mmHg 88%
    07:00 +26°C° 0 mm 3 mps 756 mmHg 86%
    08:00 +28°C° 0 mm 3 mps 756 mmHg 79%
    09:00 +29°C° 0 mm 3 mps 756 mmHg 72%
    10:00 +31°C° 0 mm 3 mps 756 mmHg 65%
    11:00 +31°C° 0.1 mm 3 mps 755 mmHg 61%
    12:00 +33°C° 0.1 mm 4 mps 755 mmHg 58%
    13:00 +34°C° 0.1 mm 4 mps 754 mmHg 54%
    14:00 +34°C° 0.4 mm 5 mps 754 mmHg 54%
    15:00 +34°C° 0.4 mm 5 mps 753 mmHg 54%
    16:00 +34°C° 0.4 mm 6 mps 753 mmHg 54%
    17:00 +33°C° 0.9 mm 5 mps 753 mmHg 59%
    18:00 +32°C° 0.9 mm 5 mps 753 mmHg 64%
    19:00 +30°C° 0.9 mm 4 mps 753 mmHg 69%
    20:00 +29°C° 0.4 mm 4 mps 753 mmHg 72%
    21:00 +28°C° 0.4 mm 4 mps 753 mmHg 75%
    22:00 +27°C° 0.4 mm 4 mps 753 mmHg 78%
    23:00 +27°C° 0 mm 4 mps 753 mmHg 79%

    20 June, Thursday

    Time Temperature Precipitation Wind Pressure Humidity
    00:00 +27°C° 0 mm 4 mps 753 mmHg 81%
    01:00 +26°C° 0 mm 3 mps 753 mmHg 82%
    02:00 +26°C° 0 mm 3 mps 753 mmHg 83%
    03:00 +25°C° 0 mm 3 mps 753 mmHg 83%
    04:00 +25°C° 0 mm 3 mps 753 mmHg 83%
    05:00 +26°C° 0 mm 3 mps 754 mmHg 81%
    06:00 +27°C° 0 mm 3 mps 754 mmHg 78%
    07:00 +27°C° 0 mm 3 mps 754 mmHg 76%
    08:00 +29°C° 0 mm 3 mps 754 mmHg 69%
    09:00 +31°C° 0 mm 3 mps 754 mmHg 61%
    10:00 +34°C° 0 mm 3 mps 754 mmHg 54%
    11:00 +35°C° 0 mm 3 mps 754 mmHg 50%
    12:00 +36°C° 0 mm 3 mps 754 mmHg 47%
    13:00 +37°C° 0 mm 3 mps 753 mmHg 44%
    14:00 +37°C° 0.1 mm 4 mps 753 mmHg 44%
    15:00 +37°C° 0.1 mm 4 mps 752 mmHg 45%
    16:00 +37°C° 0.1 mm 5 mps 752 mmHg 46%
    17:00 +36°C° 0.1 mm 6 mps 752 mmHg 50%
    18:00 +35°C° 0.1 mm 6 mps 752 mmHg 54%
    19:00 +33°C° 0.1 mm 7 mps 752 mmHg 58%
    20:00 +30°C° 3.4 mm 7 mps 752 mmHg 65%
    21:00 +27°C° 3.4 mm 8 mps 753 mmHg 73%
    22:00 +24°C° 3.4 mm 9 mps 753 mmHg 81%
    23:00 +24°C° 0.2 mm 8 mps 753 mmHg 79%

    21 June, Friday

    Time Temperature Precipitation Wind Pressure Humidity
    00:00 +24°C° 0.2 mm 7 mps 753 mmHg 77%
    01:00 +24°C° 0.2 mm 6 mps 753 mmHg 75%
    02:00 +24°C° 0 mm 6 mps 753 mmHg 77%
    03:00 +24°C° 0 mm 6 mps 753 mmHg 80%
    04:00 +24°C° 0 mm 6 mps 753 mmHg 82%
    05:00 +24°C° 0 mm 6 mps 753 mmHg 81%
    06:00 +25°C° 0 mm 5 mps 753 mmHg 81%
    07:00 +25°C° 0 mm 5 mps 753 mmHg 80%
    08:00 +27°C° 0 mm 4 mps 753 mmHg 74%
    09:00 +28°C° 0 mm 4 mps 754 mmHg 68%
    10:00 +30°C° 0 mm 4 mps 754 mmHg 62%
    11:00 +32°C° 0.2 mm 4 mps 754 mmHg 61%
    12:00 +31°C° 0.2 mm 3 mps 754 mmHg 59%
    13:00 +33°C° 0.2 mm 3 mps 754 mmHg 58%
    14:00 +31°C° 0.4 mm 3 mps 755 mmHg 61%
    15:00 +32°C° 0.4 mm 4 mps 755 mmHg 64%
    16:00 +30°C° 0.4 mm 4 mps 755 mmHg 68%
    17:00 +29°C° 0.1 mm 4 mps 756 mmHg 69%
    18:00 +28°C° 0.1 mm 4 mps 756 mmHg 71%
    19:00 +28°C° 0.1 mm 3 mps 757 mmHg 72%
    20:00 +27°C° 0 mm 3 mps 757 mmHg 71%
    21:00 +26°C° 0 mm 3 mps 758 mmHg 71%
    22:00 +26°C° 0 mm 3 mps 758 mmHg 70%
    23:00 +25°C° 0 mm 3 mps 758 mmHg 70%

    22 June, Saturday

    Time Temperature Precipitation Wind Pressure Humidity
    00:00 +25°C° 0 mm 2 mps 758 mmHg 70%
    01:00 +25°C° 0 mm 2 mps 758 mmHg 70%
    02:00 +24°C° 0 mm 2 mps 759 mmHg 71%
    03:00 +24°C° 0 mm 3 mps 759 mmHg 73%
    04:00 +24°C° 0 mm 3 mps 759 mmHg 74%
    05:00 +25°C° 0 mm 4 mps 760 mmHg 73%
    06:00 +25°C° 0 mm 4 mps 761 mmHg 73%
    07:00 +26°C° 0 mm 4 mps 761 mmHg 72%
    08:00 +27°C° 0 mm 4 mps 761 mmHg 66%
    09:00 +27°C° 0 mm 4 mps 762 mmHg 61%
    10:00 +28°C° 0 mm 4 mps 762 mmHg 55%
    11:00 +29°C° 0 mm 4 mps 762 mmHg 52%
    12:00 +29°C° 0 mm 4 mps 762 mmHg 49%
    13:00 +29°C° 0 mm 4 mps 762 mmHg 46%
    14:00 +29°C° 0 mm 4 mps 762 mmHg 45%
    15:00 +29°C° 0 mm 3 mps 762 mmHg 44%
    16:00 +29°C° 0 mm 3 mps 762 mmHg 43%
    17:00 +28°C° 0 mm 3 mps 762 mmHg 50%
    18:00 +26°C° 0 mm 3 mps 762 mmHg 56%
    19:00 +25°C° 0 mm 3 mps 763 mmHg 62%
    20:00 +24°C° 0 mm 3 mps 763 mmHg 67%
    21:00 +22°C° 0 mm 3 mps 763 mmHg 73%
    22:00 +22°C° 0 mm 4 mps 763 mmHg 78%
    23:00 +22°C° 0 mm 3 mps 763 mmHg 78%
    Show more